[[[{"header":{"parameterUnit":"kt","parameterCategory":2,"dx":1,"dy":1,"la1":30.253999710083008,"la2":30.299108505249023,"lo1":-89.0895004272461,"lo2":-89.04439544677734,"nx":28,"ny":28,"refTime":"2022-09-25T21:00:00:Z","depth":0,"parameterNumber":1,"parameterNumberName":"U-component_of_WINDS"},"data":[7.0863,7.1032,7.1034,7.1226,7.1261,7.1391,7.1438,7.1499,7.1548,7.1703,7.1792,7.1811,7.186,7.1965,7.206,7.2066,7.2104,7.216,7.2157,7.1907,7.1872,7.1838,7.1797,7.217,7.2171,7.2414,7.2416,7.2418,7.0672,7.0708,7.0812,7.0914,7.1002,7.0948,7.1025,7.1101,7.1219,7.1282,7.1371,7.1508,7.1615,7.1647,7.175,7.1825,7.1805,7.1853,7.1844,7.1852,7.1586,7.1542,7.1867,7.1867,7.1867,7.1867,7.1867,7.1867,7.0322,7.0425,7.0488,7.0601,7.0653,7.0721,7.0818,7.084,7.0941,7.1052,7.1036,7.117,7.1232,7.136,7.1403,7.1506,7.1453,7.1506,7.1518,7.153,7.1541,7.118,7.1525,7.1524,7.1523,7.1522,7.1522,0,7.0066,7.0062,7.0163,7.0264,7.0347,7.0426,7.0499,7.0559,7.055,7.0635,7.0756,7.0826,7.0965,7.1077,7.1176,7.1211,7.1162,7.116,7.1195,7.1201,7.1192,7.1193,7.0752,7.1149,7.1146,7.1144,7.1142,7.1141,6.9709,6.9831,6.99,6.997,7.0011,7.0126,7.0194,7.0179,7.0252,7.0338,7.0429,7.0544,7.0634,7.0828,7.0852,7.0955,7.0932,7.1082,7.0947,7.0948,7.0927,7.0918,7.0927,7.1107,7.1111,7.1115,7.1118,0,6.9507,6.9512,6.9701,6.9759,6.9777,6.9904,6.9951,7.0053,7.0064,7.0205,7.0237,7.0254,7.0374,7.0374,7.0513,7.0508,7.071,7.0688,7.0686,7.068,7.081,7.0796,7.1244,7.1299,7.0919,7.0922,7.0925,0,6.9202,6.9363,6.936,6.947,6.9646,6.9626,6.9801,6.9828,6.9884,6.9995,6.9941,7.0046,7.0031,7.0135,7.013,7.0296,7.0324,7.0329,7.0324,7.0331,7.033,7.0366,7.0346,7.0318,7.0316,7.0314,7.0312,0,6.888,6.9071,6.9249,6.9293,6.9371,6.9455,6.9492,6.9555,6.9623,6.9712,6.9755,6.9861,6.9917,6.9998,6.999,6.9898,7.0196,7.0067,7.0199,7.02,7.0263,7.0258,7.0658,7.0309,7.0308,7.0307,7.0307,0,6.8634,6.8726,6.8987,6.9048,6.9099,6.9219,6.9319,6.9422,6.9492,6.9496,6.9567,6.953,6.968,6.9551,6.9756,6.9637,6.9695,6.9715,6.9724,6.9734,6.9588,6.9808,7.0194,7.0231,6.9746,6.9742,6.9738,0,6.8261,6.8527,6.8512,6.8761,6.8882,6.8812,6.8943,6.9009,6.9026,6.913,6.9148,6.9268,6.9173,6.9211,6.9313,6.9335,6.949,6.9315,6.946,6.9465,6.9437,6.9794,6.9848,7.011,6.9678,6.9684,6.9689,0,6.7973,6.8069,6.8115,6.8162,6.8248,6.8351,6.8504,6.8619,6.8689,6.8771,6.8895,6.9069,6.9001,6.9065,6.9048,6.9154,6.9384,6.9068,6.9069,6.912,6.9651,6.97,6.9745,6.9349,6.9356,6.9362,6.9642,0,6.7589,6.7725,6.7851,6.7963,6.8043,6.8202,6.8202,6.8286,6.826,6.8274,6.846,6.8517,6.8635,6.8689,6.8666,6.891,6.8868,6.8797,6.8669,6.8905,6.8996,6.9035,6.8531,6.8527,6.8524,6.8522,0,0,6.7228,6.7423,6.7403,6.7551,6.7617,6.7542,6.771,6.7767,6.7883,6.7929,6.7858,6.8109,6.816,6.8385,6.8459,6.851,6.8552,6.8471,6.8794,6.8824,6.8852,6.895,6.899,6.8516,6.8515,6.8514,6.8513,0,6.7087,6.7142,6.731,6.7367,6.7451,6.7458,6.7499,6.7569,6.7586,6.7771,6.7706,6.7818,6.8024,6.8082,6.8138,6.8444,6.8387,6.8481,6.8642,6.8762,6.8797,6.8827,6.8931,6.8969,6.8505,6.8506,6.8506,0,6.6799,6.6851,6.6933,6.7084,6.7139,6.7269,6.7134,6.7279,6.7374,6.7286,6.7471,6.7503,6.7584,6.78,6.7898,6.7835,6.8237,6.8113,6.8133,6.8143,6.8259,6.83,6.8337,6.7849,6.7846,6.7844,0,0,6.6676,6.6804,6.6855,6.7054,6.7093,6.7107,6.7178,6.7159,6.7234,6.7264,6.7304,6.7378,6.7495,6.7574,6.7685,6.7924,6.7937,6.8032,6.8063,6.8089,6.8112,6.8235,6.8276,6.7836,6.7835,6.7835,0,0,6.6618,6.6684,6.6645,6.6876,6.695,6.7013,6.7133,6.7086,6.7187,6.7169,6.7144,6.7163,6.7366,6.7401,6.7284,6.7638,6.7512,6.7541,6.7608,6.7647,6.7678,6.7663,6.7154,0,0,0,0,0,6.6474,6.6676,6.6639,6.6678,6.687,6.7033,6.7057,6.7041,6.695,6.7046,6.7071,6.7008,6.7332,6.7227,6.7266,6.7396,6.7723,6.7743,6.7762,6.7905,6.7946,6.798,0,0,0,0,0,0,6.6489,6.6537,6.6634,6.6706,6.6749,6.7026,6.6868,6.6869,6.694,6.6925,6.7005,6.701,6.7,6.7206,6.7242,6.7365,6.7141,6.7731,6.7748,6.7763,6.7919,6.7952,6.7981,0,0,0,0,0,6.6501,6.654,6.6852,6.6703,6.674,6.6767,6.686,6.686,6.6914,6.6955,6.6959,6.6896,6.7004,6.7032,6.7227,6.735,6.7117,6.713,6.7742,6.7755,6.7767,6.7935,0,0,0,0,0,0,6.651,6.654,6.6859,6.6869,6.6626,6.6751,6.677,6.6852,6.694,6.6945,6.6844,6.6831,6.7009,6.703,6.7053,6.7345,6.7097,6.7111,6.7119,6.7752,6.7762,6.7772,0,0,0,0,0,0,6.6519,6.655,6.6864,6.6768,6.6767,6.6737,6.6754,6.6918,6.6942,6.6824,6.6815,6.6838,6.6975,6.703,6.7047,6.7304,6.7082,6.7095,6.7103,6.7109,6.7761,6.7769,0,0,0,0,0,0,6.6532,6.6558,6.6765,6.6765,6.6764,6.6882,6.6881,6.7079,6.6859,6.6821,6.6839,6.683,6.6977,6.6994,6.7044,6.7294,6.7302,6.7082,6.7091,6.7097,6.7101,0,0,0,0,0,0,0,6.6542,6.6371,6.6796,6.6762,6.6761,6.6968,6.6971,6.6974,6.6857,6.6849,6.6841,6.6834,6.7008,6.7022,6.7037,6.7286,0,0,6.7081,6.7087,0,0,0,0,0,0,0,0,6.6359,6.6368,6.6796,6.6798,6.68,6.6969,6.6971,6.6973,6.6856,6.685,6.6843,6.6837,6.7012,6.7023,6.7035,0,0,0,0,0,0,0,0,0,0,0,0,0,0,0,6.6796,6.6798,0,6.6969,6.6971,6.6973,6.6855,6.685,6.6844,6.6839,6.7015,6.7025,6.7034,0,0,0,0,0,0,0,0,0,0,0,0,0,0,0,0,0,0,0,0,0,0,0,0,0,0,0,0,0,0,0,0,0,0,0,0,0,0,0,0,0,0,0,0,0,0,0,0,0,0,0,0,0,0,0,0,0,0,0,0,0,0,0,0,0,0,0,0,0]}],[{"header":{"parameterUnit":"kt","parameterCategory":2,"dx":1,"dy":1,"la1":30.253999710083008,"la2":30.299108505249023,"lo1":-89.0895004272461,"lo2":-89.04439544677734,"nx":28,"ny":28,"refTime":"2022-09-25T21:00:00:Z","depth":0,"parameterNumber":2,"parameterNumberName":"V-component_of_WINDS"},"data":[3.1681,3.1712,3.1698,3.1727,3.172,3.1736,3.1738,3.1739,3.1736,3.1754,3.1762,3.1752,3.1744,3.175,3.1757,3.1752,3.1756,3.1776,3.1766,3.169,3.1678,3.1667,3.1658,3.1777,3.1777,3.1846,3.1847,3.1847,3.1622,3.1615,3.1627,3.1629,3.1639,3.1611,3.1611,3.162,3.1636,3.1634,3.1642,3.1657,3.1668,3.1653,3.166,3.1673,3.166,3.1676,3.1673,3.1672,3.1591,3.1581,3.1686,3.1686,3.1686,3.1686,3.1686,3.1686,3.1511,3.153,3.1524,3.1537,3.1535,3.1536,3.1553,3.154,3.1551,3.1558,3.1541,3.1559,3.1554,3.1557,3.1556,3.1569,3.1549,3.1562,3.1564,3.1567,3.1572,3.147,3.157,3.157,3.1569,3.1569,3.1569,0,3.1424,3.1411,3.1423,3.143,3.1439,3.1443,3.1445,3.1455,3.1424,3.1436,3.145,3.1457,3.1469,3.1481,3.1486,3.1481,3.1453,3.145,3.1458,3.1465,3.147,3.1465,3.133,3.1447,3.1446,3.1445,3.1444,3.1444,3.1308,3.1334,3.1322,3.1332,3.133,3.1347,3.1353,3.1325,3.1333,3.1332,3.1351,3.1363,3.1371,3.1398,3.1383,3.1392,3.1378,3.1423,3.1379,3.1385,3.1375,3.1373,3.1374,3.1432,3.1434,3.1435,3.1436,0,3.1243,3.1222,3.1258,3.1244,3.1242,3.127,3.1258,3.1277,3.1263,3.1287,3.1291,3.1269,3.1285,3.1263,3.1277,3.1264,3.1308,3.1295,3.1308,3.1303,3.134,3.1336,3.1467,3.1482,3.1361,3.1362,3.1363,0,3.1135,3.1171,3.1136,3.1159,3.1197,3.1168,3.1207,3.1198,3.1195,3.1214,3.1179,3.1197,3.1166,3.1181,3.1163,3.1196,3.1199,3.1191,3.1185,3.1193,3.1193,3.1195,3.1189,3.1175,3.1175,3.1174,3.1173,0,3.1033,3.1059,3.1096,3.1098,3.1088,3.1106,3.1102,3.1098,3.1106,3.1113,3.1117,3.1128,3.1133,3.1141,3.1118,3.1088,3.1158,3.1112,3.1149,3.1149,3.1164,3.1163,3.1287,3.1173,3.1172,3.1172,3.1172,0,3.0942,3.095,3.1008,3.0997,3.1005,3.1031,3.1038,3.1055,3.1053,3.1043,3.1049,3.1023,3.1051,3.1007,3.1045,3.1013,3.102,3.1015,3.1017,3.1017,3.0968,3.1037,3.1159,3.117,3.1018,3.1016,3.1015,0,3.083,3.0884,3.0859,3.0915,3.0937,3.0895,3.0922,3.0922,3.0912,3.0928,3.0916,3.0935,3.0898,3.0901,3.0923,3.0911,3.0953,3.0905,3.0926,3.0927,3.0925,3.1037,3.106,3.1135,3.0999,3.1001,3.1002,0,3.0741,3.0729,3.0742,3.0742,3.0739,3.0758,3.079,3.0803,3.0814,3.082,3.0845,3.0873,3.0845,3.0851,3.0832,3.0856,3.0924,3.0823,3.0822,3.0839,3.099,3.101,3.1023,3.0905,3.0907,3.0909,3.0989,0,3.0602,3.0628,3.066,3.0666,3.0678,3.0713,3.069,3.0705,3.0684,3.0672,3.071,3.0707,3.072,3.0731,3.0712,3.0775,3.0761,3.0732,3.0686,3.0761,3.0787,3.0798,3.065,3.0648,3.0647,3.0646,0,0,3.0499,3.0536,3.0509,3.0539,3.0547,3.0504,3.0543,3.0546,3.0553,3.0559,3.0534,3.0573,3.0572,3.062,3.0642,3.0649,3.0657,3.0633,3.0726,3.0736,3.0744,3.0772,3.0783,3.0644,3.0643,3.0643,3.0643,0,3.0443,3.0444,3.0484,3.0486,3.0487,3.0473,3.0483,3.0477,3.0471,3.051,3.0473,3.0494,3.0528,3.053,3.0536,3.0626,3.0598,3.0633,3.0688,3.0715,3.0726,3.0735,3.0765,3.0776,3.064,3.064,3.064,0,3.0349,3.0345,3.0363,3.038,3.0381,3.0406,3.0352,3.0382,3.0399,3.0352,3.0391,3.0386,3.0388,3.0438,3.046,3.0438,3.0544,3.0508,3.0516,3.0517,3.0542,3.0555,3.0567,3.0414,3.0414,3.0413,0,0,3.0304,3.0329,3.0316,3.0367,3.037,3.035,3.0362,3.0343,3.0346,3.0347,3.0341,3.0345,3.0363,3.0377,3.0394,3.0453,3.045,3.0482,3.0492,3.0501,3.0507,3.0535,3.0547,3.041,3.041,3.041,0,0,3.0283,3.0269,3.0248,3.0305,3.0309,3.03,3.0331,3.0305,3.0319,3.0312,3.0282,3.0282,3.0328,3.0326,3.0293,3.0377,3.0333,3.034,3.0377,3.039,3.0401,3.0399,3.0238,0,0,0,0,0,3.0214,3.0271,3.0252,3.0258,3.0281,3.031,3.0313,3.0289,3.0257,3.0282,3.0272,3.0242,3.0301,3.0271,3.0278,3.0315,3.0376,3.0382,3.0388,3.0449,3.0463,3.0475,0,0,0,0,0,0,3.0216,3.0224,3.025,3.0244,3.0249,3.0308,3.0248,3.0243,3.0254,3.0247,3.0245,3.0242,3.0222,3.0266,3.0273,3.0308,3.0236,3.0379,3.0384,3.0388,3.0454,3.0465,3.0475,0,0,0,0,0,3.0218,3.0224,3.0268,3.0243,3.0247,3.0229,3.0246,3.0241,3.0249,3.0235,3.0231,3.023,3.0224,3.0227,3.027,3.0306,3.0231,3.0233,3.0382,3.0386,3.039,3.0459,0,0,0,0,0,0,3.0219,3.022,3.0268,3.0268,3.022,3.0225,3.0225,3.024,3.0235,3.0232,3.0218,3.0213,3.0226,3.0228,3.0231,3.0306,3.0227,3.023,3.0231,3.0385,3.0388,3.0391,0,0,0,0,0,0,3.0216,3.0221,3.0268,3.0241,3.0238,3.0222,3.0222,3.0255,3.0236,3.0219,3.0215,3.0216,3.0221,3.0229,3.0231,3.0284,3.0225,3.0227,3.0229,3.023,3.0388,3.039,0,0,0,0,0,0,3.0218,3.0221,3.024,3.0238,3.0235,3.0238,3.0251,3.0276,3.0212,3.022,3.0206,3.0203,3.0223,3.0225,3.0231,3.0284,3.0284,3.0225,3.0226,3.0227,3.0228,0,0,0,0,0,0,0,3.0219,3.0201,3.0266,3.0236,3.0234,3.0272,3.0272,3.0272,3.0212,3.0209,3.0207,3.0204,3.0211,3.0214,3.0216,3.0284,0,0,3.0224,3.0226,0,0,0,0,0,0,0,0,3.0198,3.02,3.0266,3.0266,3.0266,3.0272,3.0272,3.0272,3.0211,3.0209,3.0207,3.0205,3.0212,3.0214,3.0216,0,0,0,0,0,0,0,0,0,0,0,0,0,0,0,3.0266,3.0266,0,3.0272,3.0272,3.0272,3.0211,3.0209,3.0207,3.0206,3.0212,3.0214,3.0216,0,0,0,0,0,0,0,0,0,0,0,0,0,0,0,0,0,0,0,0,0,0,0,0,0,0,0,0,0,0,0,0,0,0,0,0,0,0,0,0,0,0,0,0,0,0,0,0,0,0,0,0,0,0,0,0,0,0,0,0,0,0,0,0,0,0,0,0,0]}]]]